1999 Fossil

1999 Fossil Articuno   Holo

Articuno Holo

Population Report

PSA10
58
PSA9
437
PSA8
472
PSA7
257
PSA6
149
PSA5
70
PSA4
30
PSA3
13
PSA2
4
PSA1
4

Population Report as of Wednesday, November 3, 2021

Price History

Sale Date
Grade
Price
Auction ID
Seller ID
PSA Cert Number
Sale Type
2021-10-31 6 $36.00 eBay #284499415591 eBay zandgemporium-0 50763861 Auction
2021-10-30 8 $46.00 eBay #154666368381 eBay ccofsalem 51737220 Auction
2021-10-26 8 $53.00 eBay #324845308834 eBay collectibleinvestor 51806826 Auction
2021-10-24 8 $58.09 eBay #165134124411 eBay rocketscollectablesca 58782627 Auction
2021-10-24 7 $47.00 eBay #363583135944 eBay clutchcards2021 47598869 Auction
2021-10-18 7 $49.36 eBay #384439927297 eBay torontocollectordog 47094628 Auction
2021-10-17 7 $40.00 eBay #154646870596 eBay ccofsalem 51737219 Auction
2021-10-16 8 $25.00 eBay #284487725942 eBay scab2138 47382353 Auction
2021-10-14 8 $49.99 eBay #393620934632 eBay hunterxhunter12cardshop 52486314 Auction
2021-10-13 8 $127.51 eBay #324817883443 eBay collectibleinvestor 51806826 Auction
2021-10-11 4 $12.50 eBay #284475320750 eBay joluca-46 51874596 Auction
2021-10-11 9 $119.59 eBay #284475720184 eBay the_sacred_one 49389668 Auction
2021-10-11 8 $56.00 eBay #174966427484 eBay one-with-the-force 52605073 Auction
2021-10-10 8 $77.73 eBay #403209985736 eBay 155knights 52328384 Auction
2021-10-10 9 $125.47 eBay #115026169987 eBay ciggycards 49324382 Auction
2021-10-07 9 $1,655.30 eBay #265344121435 eBay ukcardmania 45899437 Auction
2021-10-06 7 $51.00 eBay #373740537122 eBay dcsports87 53919703 Auction
2021-10-04 5 $28.43 eBay #284470200341 eBay darkmagician69 52334871 Auction
2021-10-02 9 $205.00 eBay #185062412190 eBay flippinwotc 48047229 Auction
2021-09-29 4 $19.50 eBay #284460770438 eBay joluca-46 51874596 Auction
2021-09-27 10 $920.00 eBay #294400701594 eBay wise_wailmer 48559122 Auction
2021-09-23 8 $76.41 eBay #115000981417 eBay thistleandstone 63024166 Auction
2021-09-21 6 $26.00 eBay #255135655836 eBay bobsauthentics 48915552 Auction
2021-09-17 8 $25.00 eBay #165062992410 eBay killia7 51503807 Auction
2021-09-16 6 $27.00 eBay #284445832710 eBay hitnrunsportscards 51472626 Auction
2021-09-15 6 $40.00 eBay #384382602854 eBay jdousharm-3 51850206 Auction
2021-09-13 6 $42.00 eBay #294379184383 eBay bobsauthentics 48915552 Auction
2021-09-12 8 $85.90 eBay #274932743515 eBay gemcollectables 50611130 Auction
2021-09-08 8 $39.00 eBay #224593054426 eBay theheatcheck123 51503807 Auction
2021-09-07 9 $122.50 eBay #133865610053 eBay anderson_capital 51170556 Auction
2021-09-02 8 $102.50 eBay #133861385222 eBay anderson_capital 51170555 Auction
2021-09-01 7 $54.99 eBay #353638089470 eBay jkw728 49815150 Auction
2021-08-29 6 $36.00 eBay #403099097831 eBay pkmna25 51701084 Auction
2021-08-29 8 $155.00 eBay #255104603021 eBay milad101 47125056 Auction
2021-08-29 7 $77.24 eBay #124865476251 eBay hog_cards 50993014 Auction
2021-08-25 4 $22.50 eBay #284414233184 eBay joluca-46 51874596 Auction
2021-08-23 8 $87.14 eBay #294343219294 eBay upliftd_cards 48535203 Auction
2021-08-23 8 $47.05 eBay #353625369537 eBay foster_cards 51503807 Auction
2021-08-23 8 $58.00 eBay #384334422142 eBay tko2911 48298193 Auction
2021-08-20 8 $75.00 eBay #363505244822 eBay legallyblonde_dc 60892220 Auction
2021-08-20 8 $61.00 eBay #373682083487 eBay probstein123 49869755 Auction
2021-08-18 8 $64.99 eBay #304105633578 eBay marshn94 44815006 Auction
2021-08-15 9 $108.50 eBay #154562276248 eBay elway91 49996388 Auction
2021-08-10 9 $139.00 eBay #353607502386 eBay merchandiseliquidations 51827185 Auction
2021-08-10 9 $153.50 eBay #353607503280 eBay merchandiseliquidations 51827184 Auction
2021-08-07 7 $51.00 eBay #124835806790 eBay shining_tcg 47800689 Auction
2021-07-31 8 $101.50 eBay #393465693353 eBay mpes45 49451774 Auction
2021-07-28 7 $61.00 eBay #402997975593 eBay pwcc_auctions 49255881 Auction
2021-07-28 8 $72.00 eBay #402997975596 eBay pwcc_auctions 49255883 Auction
2021-07-26 8 $70.00 eBay #144122010035 eBay myslabs_mke 51457610 Auction
2021-07-21 9 $232.50 eBay #373652042584 eBay dcsports87 51670996 Auction
2021-07-13 8 $71.02 eBay #154517505186 eBay echoate 60892220 Auction
2021-07-04 9 $137.50 eBay #164932026259 eBay angrydane14 42033442 Auction
2021-06-23 4 $31.00 eBay #184885834777 eBay ajgraham18 50928084 Auction
2021-06-18 5 $31.02 eBay #234047872258 eBay cisco_sells 49710273 Auction
2021-06-17 8 $96.51 eBay #363429072688 eBay probstein123 49869755 Auction
2021-06-13 9 $145.00 eBay #284322879423 eBay jwiseleo1988 41727569 Auction
2021-06-13 7 $40.00 eBay #144066566395 eBay jefwil6469 49873125 Auction
2021-06-13 9 $153.50 eBay #133781837666 eBay columbiasportscard 49764183 Auction
2021-06-09 9 $157.50 eBay #184866434041 eBay littleravvy 51030359 Auction
2021-05-29 9 $202.50 eBay #402854689019 eBay pwcc_auctions 42179739 Auction
2021-05-29 8 $58.05 eBay #384184207245 eBay waxbybrick 58792807 Auction
2021-05-20 9 $305.00 eBay #384161384185 eBay probstein123 48567844 Auction
2021-05-18 8 $105.50 eBay #363391006955 eBay probstein123 47894366 Auction
2021-05-18 7 $73.33 eBay #363391002059 eBay probstein123 50408674 Auction
2021-05-17 6 $28.00 eBay #363393835090 eBay jtemp.96 58332449 Auction
2021-05-08 4 $41.00 eBay #294153796213 eBay pr0fessorpalm 48704605 Auction
2021-05-07 7 $54.00 eBay #194081902223 eBay joshuaronso_0 54868243 Auction
2021-05-07 9 $137.50 eBay #133745943054 eBay dggamer 48787990 Auction
2021-05-07 7 $81.02 eBay #133745942963 eBay dggamer 48787993 Auction
2021-05-02 9 $145.50 eBay #393261307990 eBay discounts_from_hundul 46838891 Auction
2021-04-30 7 $63.00 eBay #384110982010 eBay waldorothstein 48304696 Auction
2021-04-27 9 $255.00 eBay #144011141435 eBay pwcc_auctions 28967690 Auction
2021-04-27 7 $91.00 eBay #353459576655 eBay pwcc_auctions 47299625 Auction
2021-04-27 6 $49.00 eBay #402796487745 eBay pwcc_auctions 51701084 Auction
2021-04-26 8 $98.00 eBay #184770379250 eBay bjorn1120 48794190 Auction
2021-04-26 5 $39.00 eBay #133734243437 eBay petrstud 47622543 Auction
2021-04-21 7 $69.00 eBay #384094023884 eBay waldorothstein 48304697 Auction
2021-04-19 6 $40.00 eBay #174726174401 eBay jscottyson 48961314 Auction
2021-04-19 8 $120.05 eBay #284250492224 eBay toontownhobbies 51158700 Best Offer
2021-04-13 8 $127.50 eBay #402783095124 eBay yingandyang88 48176440 Auction
2021-04-12 7 $75.99 eBay #194018542222 eBay brolijr 48577099 Best Offer
2021-04-12 8 $149.99 eBay #194024814408 eBay collectiblesforyou2019 47659708 Best Offer
2021-04-11 7 $61.00 eBay #393234930675 eBay vjcollectables 49275678 Auction
2021-04-04 8 $73.00 eBay #373517587729 eBay josbe_7 48105981 Auction
2021-04-02 9 $230.00 eBay #284242223092 eBay jerwe86 47603275 Best Offer
2021-03-29 7 $66.00 eBay #353428452083 eBay thehelmetguyllc 53340306 Auction
2021-03-22 9 $216.07 eBay #363294941188 eBay supers-7321 42155115 Best Offer
2021-03-22 8 $140.04 eBay #284215402545 eBay toontownhobbies 51158700 Best Offer
2021-03-20 5 $65.00 eBay #224381368330 eBay josant4503 47729008 Best Offer
2021-03-12 9 $291.95 eBay #193938244798 eBay psa_pokeshop 47365843 Best Offer
2021-03-11 4 $36.00 eBay #164743387286 eBay dewbar-1 53178468 Auction
2021-03-10 6 $65.00 eBay #402718482010 eBay crouching-tiger_hidden-hippo_cards 47519002 Best Offer
2021-03-08 9 $255.00 eBay #174647851779 eBay dyta_12 53949482 Best Offer
2021-03-08 6 $78.00 eBay #254878561639 eBay infinity.quarter 53598841 Auction
2021-03-07 9 $170.00 eBay #184696696126 eBay dgdragonboy_2 47280348 Best Offer
2021-03-07 7 $84.99 eBay #184698410204 eBay ttm_collectibles 47888873 Best Offer
2021-03-04 3 $46.00 eBay #313436061292 eBay jolt3d 53078642 Auction
2021-03-04 9 $172.50 eBay #402724775299 eBay l3velupgames_by_idecodedi 51830090 Auction
2021-03-02 4 $39.49 eBay #224349686941 eBay jeffryyyy 52471730 Auction
2021-02-28 8 $118.50 eBay #353391390280 eBay pwcc_auctions 53496199 Auction
2021-02-28 8 $96.00 eBay #353394580428 eBay thehelmetguyllc 53340307 Auction
2021-02-26 9 $211.00 eBay #254869472984 eBay supersam57 44424212 Auction
2021-02-26 9 $200.00 eBay #284198083854 eBay forpokey-60 41122644 Best Offer
2021-02-25 7 $79.99 eBay #402702932354 eBay takrya0 47399294 Best Offer
2021-02-25 7 $95.00 eBay #124565721313 eBay ayjayjaygaming 47131729 Best Offer
2021-02-22 7 $85.00 eBay #402613917087 eBay twistibl6 45981176 Best Offer
2021-02-19 9 $212.50 eBay #274680640030 eBay coins_n_rarities 47580736 Auction
2021-02-17 9 $225.00 eBay #233863370184 eBay r1k0 44449616 Best Offer
2021-02-12 7 $75.00 eBay #303874199583 eBay parsely_poke 52666528 Auction
2021-02-12 4 $36.00 eBay #164699110866 eBay dewbar-1 53178468 Best Offer
2021-02-11 9 $207.50 eBay #184648738662 eBay bjorn1120 46696267 Auction
2021-02-11 4 $36.00 eBay #164687452729 eBay dewbar-1 53178468 Auction
2021-02-07 9 $152.00 eBay #174619382098 eBay onedotdash 53491307 Auction
2021-02-02 7 $65.00 eBay #133647929061 eBay hollyg997 47131729 Auction
2021-01-31 7 $100.00 eBay #184598571930 eBay automodbot 46509618 Best Offer
2021-01-30 8 $71.00 eBay #124540935552 eBay joemlite 53410141 Auction
2021-01-28 9 $207.50 eBay #143921009178 eBay pwcc_auctions 27566569 Auction
2021-01-28 8 $120.00 eBay #373367508262 eBay schvar0 47241655 Best Offer
2021-01-12 8 $91.00 eBay #133628934428 eBay hollyg997 47131730 Auction
2021-01-10 8 $99.95 eBay #393084022390 eBay grandlinetoys 41628832 Best Offer
2021-01-08 8 $95.00 eBay #284136297412 eBay scab2138 41916634 Auction
2020-12-29 9 $295.00 eBay #143890831544 eBay pwcc_auctions 49140133 Auction
2020-12-22 8 $71.00 eBay #254808221346 eBay platinummed 21732312 Auction
2020-12-21 7 $75.00 eBay #293898709569 eBay tillys.collectibles 43140737 Auction
2020-12-20 8 $89.99 eBay #233824123601 eBay ex.collectibles 44271238 Best Offer
2020-12-19 8 $119.50 eBay #164576395830 eBay tgenterprisellc 46156620 Auction
2020-12-13 9 $192.50 eBay #402587697982 eBay pwcc_auctions 49140132 Auction
2020-12-13 10 $1,175.00 eBay #143870261107 eBay pwcc_auctions 26384030 Auction
2020-12-11 5 $49.99 eBay #164561069509 eBay nyc_picker 45777947 Best Offer
2020-12-11 7 $95.00 eBay #264949953866 eBay dntfp98 47299625 Best Offer
2020-12-07 8 $95.00 eBay #254793758329 eBay milad101 46377932 Auction
2020-12-07 9 $175.61 eBay #254793759317 eBay milad101 46857947 Auction
2020-12-07 7 $51.00 eBay #254793754216 eBay milad101 46509618 Auction
2020-12-06 8 $85.00 eBay #324400420616 eBay karateki24 51917102 Auction
2020-12-05 8 $124.99 eBay #313325431164 eBay cas1594 47299626 Best Offer
2020-12-04 7 $50.00 eBay #193774433488 eBay poloshua85-4 47066576 Best Offer
2020-12-03 9 $153.61 eBay #203202608765 eBay itzgr.us.tmp1jysz6 43367532 Auction
2020-12-02 9 $172.50 eBay #203201557387 eBay antalo-77 44284364 Auction
2020-11-30 7 $50.00 eBay #264949932618 eBay dntfp98 47299625 Best Offer
2020-11-28 9 $122.50 eBay #284093941750 eBay poketraderjosh 45639011 Auction
2020-11-28 7 $60.00 eBay #333783629454 eBay poochimports 47351529 Best Offer
2020-11-28 6 $89.99 eBay #114514897042 eBay blowoutcards2 46439041 Best Offer
2020-11-27 8 $142.50 eBay #333801087813 eBay alegarci-11 46144739 Auction
2020-11-26 8 $100.00 eBay #293847324844 eBay danny0025 47283422 Auction
2020-11-26 9 $311.00 eBay #353279077090 eBay pwcc_auctions 46857947 Auction
2020-11-20 3 $89.99 eBay #203184736196 eBay luxuryshoes96 51352142 Best Offer
2020-11-20 10 $1,500.00 eBay #254783587541 eBay jameson_1_2 46847348 Best Offer
2020-11-19 8 $137.00 eBay #154190168093 eBay rebpet-7131 46996789 Auction
2020-11-16 9 $123.71 eBay #224228577825 eBay walcarwalte 48353127 Auction
2020-11-14 1 $20.00 eBay #254776735475 eBay nitrosnipe 47282875 Best Offer
2020-11-13 9 $194.40 eBay #373320737121 eBay sirkush8891 41122644 Auction
2020-11-10 9 $300.00 eBay #164479419095 eBay cptkirkamus 29027208 Best Offer
2020-11-10 8 $90.00 eBay #254767071772 eBay nitrosnipe 47282874 Auction
2020-11-07 7 $96.00 eBay #143818337252 eBay anderson_capital 47094628 Auction
2020-11-03 8 $139.99 eBay #164487183711 eBay horible_cards 46837604 Best Offer
2020-11-03 9 $342.72 eBay #373299217337 eBay sirkush8891 41122644 Auction
2020-10-30 7 $115.00 eBay #353251068724 eBay ramman101 46444561 Best Offer
2020-10-28 9 $222.50 eBay #313271079091 eBay pazcat001 46199768 Auction
2020-10-28 9 $350.00 eBay #164470092370 eBay cptkirkamus 40213669 Best Offer
2020-10-26 8 $118.50 eBay #124398257930 eBay dcsports87 48730104 Auction
2020-10-26 8 $132.50 eBay #284047641943 eBay rickyw141 47450034 Auction
2020-10-24 7 $120.00 eBay #353247191675 eBay ramman101 46444561 Best Offer
2020-10-22 8 $78.00 eBay #284048984445 eBay steelersteve-123 46144739 Auction
2020-10-22 8 $110.00 eBay #293775168689 eBay apspeeze 47348987 Best Offer
2020-10-19 8 $110.00 eBay #324329972428 eBay thelostmagikarp 47458285 Best Offer
2020-10-18 6 $75.00 eBay #383761677132 eBay reddum_collective 48122771 Best Offer
2020-10-16 8 $100.00 eBay #233745312383 eBay elite305cards 47788847 Best Offer
2020-10-16 7 $70.00 eBay #373253262683 eBay schvar0 46444561 Best Offer
2020-10-12 9 $200.00 eBay #184476771252 eBay collectablepile 27693591 Best Offer
2020-10-09 8 $89.00 eBay #224184406320 eBay the_vintage_pokemon_superstore 27554181 Best Offer
2020-10-09 8 $80.00 eBay #363133079624 eBay gulfcoasthobby 47458286 Best Offer
2020-10-06 8 $82.00 eBay #264887873182 eBay oscarcorrea7 45950700 Best Offer
2020-10-06 8 $58.00 eBay #383739601702 eBay cabrera_9 41171287 Auction
2020-10-05 9 $135.00 eBay #313245012209 eBay imperial_assets 44284364 Best Offer
2020-09-30 9 $85.00 eBay #174457593525 eBay kgoodstuff 26966074 Best Offer
2020-09-30 9 $122.50 eBay #224166900269 eBay thecollectablegirl123 45766059 Auction
2020-09-29 8 $52.00 eBay #392961639983 eBay errich1091 45950700 Auction
2020-09-23 10 $710.00 eBay #154093763566 eBay mdiesel2255 43033997 Auction
2020-09-23 6 $39.00 eBay #254720094437 eBay ndcheezhead2012 46305855 Auction
2020-09-22 9 $187.76 eBay #154068314013 eBay shadowless_gaming 28967690 Best Offer
2020-09-21 6 $36.00 eBay #264864705494 eBay biggerscho 27343350 Auction
2020-09-21 8 $75.00 eBay #203080069354 eBay micahspokemoncards 41171287 Best Offer
2020-09-08 9 $170.00 eBay #124295179878 eBay sbunney28 46723298 3
2020-09-08 8 $56.00 eBay #224142894006 eBay the_vintage_pokemon_superstore 27554180 Best Offer
2020-09-02 8 $68.09 eBay #353186445709 eBay mrshinyraichu 46791537 Best Offer
2020-09-01 8 $62.00 eBay #164352951534 eBay michaenorat0 47450034 Auction
2020-08-31 9 $110.00 eBay #164353454703 eBay hernji9 44424212 3
2020-08-06 7 $52.99 eBay #114296140635 eBay sad_dragoon 46356521 Buy It Now
2020-07-30 9 $120.00 eBay #283955255691 eBay tn--cards 46333077 Buy It Now
2020-07-13 9 $100.00 eBay #184282319151 eBay fashionsparkle101 45639011 Buy It Now
2020-07-06 9 $122.50 eBay #264775209781 eBay bdf.60 41122644 Auction
2020-07-04 8 $56.00 eBay #224038140130 eBay the_vintage_pokemon_superstore 26955469 Buy It Now
2020-06-28 9 $80.00 eBay #392846978342 eBay imakuniscloset 45125598 Auction
2020-06-28 8 $57.99 eBay #143626811106 eBay stephanimusurlia0 41912372 Best Offer
2020-06-25 9 $51.00 eBay #293621009288 eBay orchardcards 26656179 Auction
2020-06-20 8 $60.00 eBay #114263755410 eBay sad_dragoon 46006939 Buy It Now
2020-06-19 9 $68.10 eBay #164242590885 eBay angrydane14 42033442 Auction
2020-06-17 8 $55.00 eBay #363017620207 eBay probstein123 46438872 Auction
2020-06-16 5 $29.99 eBay #113954904967 eBay bmarone 44121274 Buy It Now
2020-06-11 8 $64.99 eBay #383577303252 eBay habbyshobbies 45612733 Buy It Now
2020-06-03 8 $69.00 eBay #254611203881 eBay happymaskmerchant 45950700 Auction
2020-05-29 9 $51.00 eBay #114232923529 eBay imyouneek1 28596658 Auction
2020-05-25 8 $49.99 eBay #362989883972 eBay old_skool_hobbies 44500458 Buy It Now
2020-05-18 9 $80.00 eBay #153917019273 eBay collector_tyler 41522681 Buy It Now
2020-05-09 7 $20.00 eBay #293570863560 eBay stevenmikeson 46388751 Buy It Now
2020-05-07 9 $90.00 eBay #392778744009 eBay merchant_86 45833396 Buy It Now
2020-04-28 6 $24.99 eBay #124150500896 eBay martiknap-9 24007320 Best Offer
2020-04-27 7 $20.00 eBay #193437922605 eBay andscha_8656 45981176 Buy It Now
2020-04-25 8 $44.99 eBay #283831975404 eBay hot2006sauce 43465576 Buy It Now
2020-04-24 9 $59.99 eBay #223984967475 eBay epidemicure 43596354 Buy It Now
2020-04-22 8 $47.99 eBay #153883603259 eBay smgcards 45606993 Buy It Now
2020-04-21 10 $470.74 eBay #153881952822 eBay jamibursi 28967719 Buy It Now
2020-04-17 9 $59.99 eBay #223975626121 eBay epidemicure 45323622 Buy It Now
2020-04-11 8 $30.00 eBay #264682084859 eBay tauzoolee21 27924685 Buy It Now
2020-04-10 5 $17.99 eBay #193342631368 eBay brolijr 44697213 Best Offer
2020-04-03 7 $12.50 eBay #274319899207 eBay coins_n_rarities 45981176 Auction
2020-03-30 7 $20.50 eBay #153875028712 eBay elraf-37 45208892 Auction
2020-03-26 8 $24.99 eBay #392525811271 eBay gyara87 44757627 Buy It Now
2020-02-25 8 $22.50 eBay #313001763100 eBay coins_n_rarities 45623310 Auction
2020-02-23 8 $23.99 eBay #362917474581 eBay rhscards 44815006 Auction
2020-02-09 8 $19.50 eBay #193329591118 eBay carondelet 43784388 Auction
2020-02-05 8 $39.99 eBay #283737983074 eBay cooltrainerryan 44041088 Buy It Now
2020-02-04 8 $26.99 eBay #324052556483 eBay jdrose24 45087040 Buy It Now
2020-02-01 8 $21.50 eBay #383390380007 eBay habbyshobbies 44724318 Auction
2020-01-22 5 $13.50 eBay #333481626262 eBay ericpescatore 44969443 Auction
2020-01-17 7 $6.51 eBay #264594848530 eBay oheyjrod 43475242 Auction
2019-12-29 8 $19.50 eBay #223805998480 eBay justinpb98 41806465 Auction
2019-12-23 7 $15.50 eBay #352890829487 eBay pwcc_auctions 44032371 Auction
2019-12-15 8 $18.50 eBay #202848740095 eBay 11309btn 43267746 Auction
2019-11-21 8 $20.50 eBay #233402682263 eBay tcgers 44497765 Auction
2019-10-03 9 $22.50 eBay #183974872793 eBay pozjokergames 43787391 Auction
2019-09-25 7 $15.00 eBay #352790486175 eBay pwcc_auctions 43232760 Auction
2019-09-25 9 $20.50 eBay #143382892798 eBay pwcc_auctions 43660179 Auction
2019-08-25 9 $33.00 eBay #372741928048 eBay texascollector92 40685398 Auction
2019-08-22 9 $34.99 eBay #283581796380 eBay charlie4646-us 43693749 Auction
2019-08-14 6 $7.00 eBay #283578580918 eBay andreas70590 42623406 Auction
2019-07-30 9 $22.50 eBay #352726788875 eBay pwcc_auctions 23804797 Auction
2019-07-25 9 $26.00 eBay #113823325344 eBay liquidationme 42700755 Auction
2019-07-23 9 $38.99 eBay #283545061980 eBay zandgemporium-0 41258088 Best Offer
2019-07-10 9 $38.99 eBay #283516949033 eBay zandgemporium-0 43247488 Best Offer
2019-06-26 10 $120.46 eBay #153524826432 eBay mrjoosy 41796183 Best Offer
2019-06-10 8 $22.00 eBay #323818628772 eBay superdave 43191427 Best Offer
2019-05-30 5 $4.00 eBay #382969291519 eBay probstein123 43118843 Auction
2019-05-30 8 $20.50 eBay #382969285496 eBay probstein123 43118867 Auction
2019-05-14 8 $1.54 eBay #113742477635 eBay hobbyelectronicsstore 43584415 Auction
2019-05-12 8 $13.00 eBay #163678129177 eBay angrydane14 41939689 Auction
2019-04-16 5 $5.50 eBay #163645339064 eBay tgenterprisellc 41308689 Auction
2019-03-31 10 $98.00 eBay #163614461975 eBay j_mcdonald92 26489476 Auction
2019-03-27 9 $29.95 eBay #283416142653 eBay zandgemporium-0 42155115 Best Offer
2019-03-14 5 $9.99 eBay #153415090547 eBay dire_ind 41223912 Auction
2019-02-28 8 $15.00 eBay #163541972578 eBay xero250 41175510 Best Offer
2019-02-10 9 $31.00 eBay #283362957911 eBay zandgemporium-0 42155114 Best Offer
2019-01-29 8 $21.95 eBay #163435955546 eBay forevertink 41727568 Buy It Now
2019-01-20 9 $16.50 eBay #333012844384 eBay pokemasterdoug 42033442 Auction
2019-01-09 6 $11.00 eBay #113462703061 eBay seanyheitz 41672715 Best Offer
2018-12-16 10 $82.00 eBay #401652006599 eBay pwcc_auctions 26489476 Auction
2018-10-13 8 $15.30 eBay #183476098149 eBay zano009 41208360 Auction
2018-09-09 9 $21.00 eBay #163234458379 eBay pjaamma 41296780 Auction
2018-08-29 10 $76.55 eBay #401584877799 eBay pwcc_auctions 29038395 Auction
2018-08-17 8 $31.78 eBay #283086113104 eBay lakegamestore 40957554 Buy It Now
2018-08-15 8 $21.99 eBay #173465395388 eBay thecrapweasel 41014303 Buy It Now
2018-08-09 9 $30.00 eBay #113143710339 eBay blowoutcards2 30348372 Best Offer
2018-07-29 9 $96.00 eBay #142875013763 eBay pwcc_auctions 27134917 Auction
2018-07-28 8 $20.50 eBay #392086995520 eBay muchocoins 27988516 Auction
2018-07-26 9 $44.99 eBay #283062624992 eBay zandgemporium-0 40685398 Best Offer
2018-07-08 7 $20.97 eBay #283033188043 eBay lakegamestore 40957553 Auction
2018-07-03 9 $25.00 eBay #113127528083 eBay sellingyesterdaystore 27869018 Best Offer
2018-06-26 9 $20.50 eBay #142834846164 eBay pwcc_auctions 27693591 Auction
2018-05-16 3 $5.00 eBay #142788773319 eBay nerdyboytrader 28177883 Auction
2018-05-08 9 $35.00 eBay #282956577502 eBay pokemon_619 40213669 Buy It Now
2018-05-08 9 $40.00 eBay #273177512175 eBay numismaticsgmc 29027208 Best Offer
2018-04-29 9 $29.00 eBay #401525120172 eBay pwcc_auctions 27693592 Auction
2018-04-07 9 $46.94 eBay #222909071317 eBay pokeinvestments 28967701 Buy It Now
2018-03-27 9 $24.99 eBay #263558964795 eBay 4_sharp_corners 28967698 Buy It Now
2018-03-21 10 $79.00 eBay #192482401537 eBay my_honolulu_blue 28596119 Auction
2018-03-16 10 $79.99 eBay #382410090901 eBay 4_sharp_corners 28967719 Buy It Now
2018-03-15 9 $19.99 eBay #263551093971 eBay 4_sharp_corners 28967690 Buy It Now
2018-03-14 9 $19.99 eBay #362269417158 eBay 4_sharp_corners 28967743 Buy It Now
2018-03-12 9 $19.99 eBay #362267515758 eBay 4_sharp_corners 28967747 Buy It Now
2018-03-12 10 $79.99 eBay #263544524337 eBay 4_sharp_corners 28967752 Buy It Now
2018-03-11 9 $14.99 eBay #362266558557 eBay 4_sharp_corners 28967701 Buy It Now
2018-03-10 8 $19.99 eBay #263521746773 eBay geno1959 27998556 Buy It Now
2018-02-16 9 $17.00 eBay #232661469138 eBay jvccollectiblesandgifts 28596658 Best Offer
2018-02-11 9 $28.00 eBay #332543648595 eBay real_lyfe_snorlax 27551064 Auction
2018-01-31 7 $10.00 eBay #273045305516 eBay daniesosno_0 28387208 Buy It Now
2018-01-25 9 $20.00 eBay #122861964811 eBay etalambda2 26355564 Best Offer
2018-01-10 9 $22.50 eBay #192413647394 eBay pokemonoahu_808 28235899 Best Offer
2017-12-24 8 $12.00 eBay #182963641842 eBay collectorsworld-va 28484812 Auction
2017-12-24 9 $24.00 eBay #182963648316 eBay collectorsworld-va 28484813 Auction
2017-12-20 9 $22.00 eBay #192398188060 eBay pokemonoahu_808 28235900 Best Offer
2017-12-18 9 $29.99 eBay #192399654804 eBay hyper-blue 28109746 Buy It Now
2017-12-18 9 $22.50 eBay #132433831309 eBay brewtowntradingco 27895666 Auction
2017-11-17 8 $15.00 eBay #272923198887 eBay daniesosno_0 27924685 Best Offer
2017-11-10 8 $15.00 eBay #152778086807 eBay goodsnstuff 27400087 Best Offer
2017-11-06 6 $4.25 eBay #112623325436 eBay bethstar4778 27343350 Auction
2017-10-24 10 $76.00 eBay #362134323819 eBay probstein123 26354954 Auction
2017-10-14 9 $20.00 eBay #222666578758 eBay lostmachete 26616591 Auction
2017-09-06 6 $13.45 eBay #152689693923 eBay smaegames 27343350 Best Offer
2017-08-16 9 $29.99 eBay #282598942609 eBay lin1990.2012 27566569 Buy It Now
2017-08-16 10 $149.99 eBay #192197658425 eBay hyper-blue 27339510 Buy It Now
2017-07-30 8 $23.26 eBay #142454964136 eBay mastertrainer_red 27571907 Auction
2017-07-17 9 $95.00 eBay #272660990202 eBay orangegarbage 27134917 Best Offer
2017-06-10 9 $35.00 eBay #282491065923 eBay deborah2180 23012969 Buy It Now
2017-05-30 9 $34.99 eBay #142368137490 eBay mastertrainer_red 27031669 Buy It Now
2017-05-27 9 $22.50 eBay #311879048157 eBay numismaticsgmc 26930716 Auction
2017-05-12 10 $64.95 eBay #152541602616 eBay dsscds 26384030 Buy It Now
2017-01-25 8 $21.50 eBay #381929440411 eBay barbaraf508 26653848 Auction
2016-12-03 7 $15.00 eBay #112217577503 eBay leoliv4 26228675 Auction
2016-11-02 8 $14.99 eBay #322304212008 eBay thomaweb5 26246201 Auction